カタログに戻る

COSMOS 1275 DEB

運用中PO
NORAD 39943·DEBRIS·🇷🇺 Russia

打ち上げ Jun 4, 1981 から Plesetsk Cosmodrome

Loading…

次のパス (今後24時間)

TLE

最新Source: Space-Track

元期: Sep 14, 2026, 15:53 UTC

1 39943U 81053ND  26257.66225022  .00000774  00000-0  90869-3 0  9995
2 39943  83.0654 139.4264 0145246 143.7125 247.0370 13.62585848608096

AllMySatでCOSMOS 1275 DEBをリアルタイム追跡

Download on the App Store